Date,TemperatureHighF,TemperatureAvgF,TemperatureLowF,DewpointHighF,DewpointAvgF,DewpointLowF,HumidityHigh,HumidityAvg,HumidityLow,PressureMaxIn,PressureMinIn,WindSpeedMaxMPH,WindSpeedAvgMPH,GustSpeedMaxMPH,PrecipitationSumIn
2013-3-1,59.0,45.6,31.8,21.0,14.5,6.0,41,29,19,30.43,30.24,18,7,25,0.00
2013-3-2,66.1,49.1,28.3,24.0,19.8,15.0,59,34,17,30.42,30.13,18,4,21,0.00
2013-3-3,68.3,51.4,31.8,24.0,15.5,-2.0,55,28,6,30.13,29.78,20,7,29,0.00
2013-3-4,61.9,55.0,40.2,23.0,19.9,16.0,41,26,20,29.99,29.64,23,8,35,0.00
2013-3-5,60.5,45.7,30.4,23.0,16.8,7.0,69,36,12,30.27,30.00,14,5,19,0.00
2013-3-6,66.7,52.0,40.5,26.0,20.5,11.0,43,30,20,30.16,29.84,22,7,27,0.00
2013-3-7,69.8,53.5,31.7,22.0,17.5,14.0,50,28,13,30.01,29.79,14,5,27,0.00
2013-3-8,61.2,48.1,37.9,42.0,25.2,11.0,85,46,20,29.86,29.61,25,7,40,0.08
2013-3-9,45.1,38.7,31.9,36.0,26.1,18.0,87,62,34,30.00,29.72,22,7,25,0.03
2013-3-10,51.8,38.6,25.7,29.0,22.9,16.0,87,59,27,30.21,30.00,15,4,22,0.00
2013-3-11,61.4,46.6,31.6,22.0,17.7,11.0,59,36,14,30.23,29.99,19,7,23,0.00
2013-3-12,65.9,53.0,35.7,25.0,21.9,20.0,54,32,17,30.17,30.03,13,5,16,0.00
2013-3-13,70.4,52.9,33.1,27.0,21.4,-99.9,64,34,15,30.29,30.10,16,-5,27,0.00
2013-3-14,75.9,58.0,37.7,25.0,18.0,9.0,48,24,10,30.26,30.05,12,4,17,0.00
2013-3-15,78.5,58.2,39.2,21.0,15.2,9.0,40,21,7,30.09,29.77,16,4,20,0.00
2013-3-16,71.8,58.9,43.5,34.0,21.1,13.0,46,24,15,29.79,29.56,26,8,33,0.00
2013-3-17,68.3,54.0,39.4,36.0,22.9,-11.0,71,39,4,29.73,29.54,24,7,34,0.00
2013-3-18,65.2,52.0,36.2,10.0,5.9,1.0,31,17,8,29.91,29.73,25,8,36,0.00
2013-3-19,61.9,51.7,40.3,17.0,9.8,0.0,30,19,13,30.12,29.90,14,5,27,0.00
2013-3-20,63.0,50.3,35.7,28.0,18.6,14.0,45,30,18,30.21,29.79,23,7,23,0.00
2013-3-21,70.5,59.3,49.4,32.0,18.8,-1.0,47,25,6,29.78,29.45,25,10,36,0.00
2013-3-22,65.7,52.6,34.2,28.0,11.9,4.0,36,21,9,29.71,29.50,24,8,33,0.00
2013-3-23,51.6,40.1,31.2,27.0,1.9,-15.0,49,23,9,30.11,29.59,27,10,44,0.00
2013-3-24,51.6,38.0,23.4,0.0,-6.1,-12.0,28,16,9,30.23,29.96,30,7,33,0.00
2013-3-25,55.7,40.1,25.3,11.0,7.2,-4.0,48,28,15,30.26,30.09,19,8,26,0.00
2013-3-26,65.7,48.9,31.3,13.0,9.9,6.0,37,22,12,30.22,29.89,23,11,31,0.00
2013-3-27,71.1,58.1,42.0,15.0,10.7,3.0,30,17,8,30.00,29.80,18,7,31,0.00
2013-3-28,71.7,60.7,44.0,23.0,13.8,6.0,25,16,10,29.98,29.82,25,5,35,0.00
2013-3-29,72.8,59.7,43.5,22.0,17.3,13.0,32,20,12,30.02,29.86,14,4,18,0.00
2013-3-30,72.6,59.4,40.3,26.0,20.6,16.0,39,24,12,30.03,29.81,17,6,38,0.00
2013-3-31,72.9,61.0,46.2,31.0,27.0,24.0,42,28,17,29.94,29.75,15,4,19,0.00